TimeCST,TemperatureF,Dew PointF,Humidity,Sea Level PressureIn,VisibilityMPH,Wind Direction,Wind SpeedMPH,Gust SpeedMPH,PrecipitationIn,Events,Conditions,WindDirDegrees,DateUTC
12:55 AM,37.0,28.9,73,29.79,10.0,West,8.1,-,N/A,,Clear,270,2013-01-19 06:55:00
1:55 AM,36.0,28.9,76,29.79,10.0,West,6.9,-,N/A,,Clear,260,2013-01-19 07:55:00
2:55 AM,34.0,28.0,79,29.81,10.0,WSW,4.6,-,N/A,,Clear,250,2013-01-19 08:55:00
3:55 AM,33.1,27.0,78,29.81,10.0,SW,5.8,-,N/A,,Clear,230,2013-01-19 09:55:00
4:55 AM,32.0,26.1,79,29.82,10.0,West,8.1,-,N/A,,Clear,280,2013-01-19 10:55:00
5:55 AM,33.1,26.1,75,29.86,10.0,West,8.1,-,N/A,,Partly Cloudy,260,2013-01-19 11:55:00
6:55 AM,30.9,26.1,82,29.88,10.0,West,8.1,-,N/A,,Clear,280,2013-01-19 12:55:00
7:55 AM,32.0,28.0,85,29.91,10.0,NW,10.4,-,N/A,,Clear,320,2013-01-19 13:55:00
8:55 AM,35.1,30.0,82,29.94,10.0,NW,9.2,-,N/A,,Partly Cloudy,310,2013-01-19 14:55:00
9:55 AM,37.0,30.9,79,29.97,10.0,WNW,10.4,-,N/A,,Clear,290,2013-01-19 15:55:00
10:55 AM,39.0,30.9,73,30.01,10.0,WNW,15.0,-,N/A,,Clear,300,2013-01-19 16:55:00
11:55 AM,39.0,30.9,73,30.03,10.0,NW,20.7,27.6,N/A,,Mostly Cloudy,310,2013-01-19 17:55:00
12:18 PM,39.2,30.2,70,30.00,10.0,NW,13.8,-,N/A,,Overcast,310,2013-01-19 18:18:00
12:55 PM,37.9,30.9,76,30.06,10.0,NW,23.0,28.8,N/A,,Overcast,310,2013-01-19 18:55:00
1:55 PM,30.0,21.9,72,30.12,10.0,North,29.9,38.0,N/A,,Overcast,350,2013-01-19 19:55:00
2:40 PM,26.6,19.4,74,30.12,10.0,North,25.3,32.2,N/A,,Overcast,350,2013-01-19 20:40:00
2:55 PM,26.1,16.0,66,30.19,10.0,North,25.3,38.0,N/A,,Overcast,350,2013-01-19 20:55:00
3:55 PM,21.0,12.0,68,30.25,10.0,NNW,23.0,33.4,N/A,,Mostly Cloudy,340,2013-01-19 21:55:00
4:14 PM,19.4,12.2,74,30.21,10.0,NNW,23.0,34.5,N/A,,Scattered Clouds,340,2013-01-19 22:14:00
4:41 PM,19.4,10.4,68,30.23,10.0,NNW,26.5,35.7,N/A,,Mostly Cloudy,340,2013-01-19 22:41:00
4:50 PM,19.4,8.6,63,30.24,10.0,NNW,29.9,36.8,N/A,,Scattered Clouds,330,2013-01-19 22:50:00
4:55 PM,19.0,9.0,65,30.29,10.0,NNW,29.9,36.8,N/A,,Scattered Clouds,330,2013-01-19 22:55:00
5:55 PM,14.0,5.0,67,30.36,10.0,NNW,25.3,31.1,N/A,,Clear,340,2013-01-19 23:55:00
6:46 PM,12.2,3.2,67,30.33,10.0,NNW,27.6,33.4,N/A,,Mostly Cloudy,340,2013-01-20 00:46:00
6:55 PM,10.9,1.9,67,30.40,10.0,NNW,24.2,31.1,N/A,,Mostly Cloudy,340,2013-01-20 00:55:00
7:07 PM,10.4,1.4,67,30.34,10.0,North,18.4,25.3,N/A,,Scattered Clouds,350,2013-01-20 01:07:00
7:55 PM,9.0,-0.0,67,30.43,10.0,NNW,18.4,25.3,N/A,,Clear,330,2013-01-20 01:55:00
8:55 PM,8.1,-0.9,67,30.43,10.0,NNW,15.0,-,N/A,,Clear,330,2013-01-20 02:55:00
9:55 PM,6.1,-2.0,69,30.43,10.0,NNW,13.8,-,N/A,,Clear,330,2013-01-20 03:55:00
10:55 PM,6.1,-2.0,69,30.44,10.0,North,11.5,-,N/A,,Clear,350,2013-01-20 04:55:00
11:55 PM,5.0,-2.9,70,30.43,10.0,North,9.2,-,N/A,,Clear,350,2013-01-20 05:55:00